Regional Weather Roundup
Issued by NWS

Home | Current Version | Previous Version | Text Only | Print | Product List | Glossary On
Versions: 1 2 3 4 5 6 7 8 9 10 11 12 13 14 15 16 17 18 19 20 21 22 23 24 25 26 27 28 29 30 31 32 33 34 35 36 37 38 39 40 41 42 43 44 45 46 47 48 49 50
000
ASUS44 KBMX 211410
RWRAL

ALABAMA REGIONAL WEATHER ROUNDUP
NATIONAL WEATHER SERVICE BIRMINGHAM AL
900 AM CDT SUN SEP 21 2014

NOTE: "FAIR" INDICATES FEW OR NO CLOUDS BELOW 12,000 FEET
WITH NO SIGNIFICANT WEATHER AND/OR OBSTRUCTIONS TO VISIBILITY.

THE REMARK "TC" DENOTES TEMPERATURE IN DEGREES CELSIUS.

ALZ001>011-014-016>018-020-211500-
NORTH ALABAMA

CITY           SKY/WX    TMP DP  RH WIND       PRES   REMARKS
MUSCLE SHOALS  SUNNY     75  66  73 W12       30.06R
HUNTSVILLE     MOSUNNY   75  65  70 SW6       30.05S
DECATUR        SUNNY     75  65  70 SW5       30.05F
HALEYVILLE     FAIR      74  66  75 CALM      30.10S
GADSDEN        SUNNY     68  63  83 CALM      30.07R
$$

ALZ012-013-022-023-030>036-040>044-211500-
WEST CENTRAL ALABAMA

CITY           SKY/WX    TMP DP  RH WIND       PRES   REMARKS
TUSCALOOSA     SUNNY     73  66  78 CALM      30.07R
$$

ALZ015-024>027-033>036-040>044-211500-
CENTRAL ALABAMA

CITY           SKY/WX    TMP DP  RH WIND       PRES   REMARKS
BIRMINGHAM     MOSUNNY   73  64  73 CALM      30.09S
MONTGOMERY     SUNNY     74  67  78 CALM      30.07S
SHELBY CO ARPT SUNNY     74  66  76 W3        30.08R
MAXWELL AFB    SUNNY     74  69  84 CALM      30.08R
GREENVILLE     FAIR      77  67  71 CALM      30.06
$$

ALZ019-021-028-029-037-038-045>048-211500-
EAST CENTRAL ALABAMA

CITY           SKY/WX    TMP DP  RH WIND       PRES   REMARKS
ANNISTON       SUNNY     71  65  81 CALM      30.07S
ALEXANDER CITY SUNNY     74  68  82 CALM      30.09R
AUBURN         SUNNY     73  57  56 S5        30.12R
$$

ALZ051>064-211500-
SOUTHWEST ALABAMA

CITY           SKY/WX    TMP DP  RH WIND       PRES   REMARKS
MOBILE         MOSUNNY   76  68  76 NE6       30.05R
BROOKLEY FIELD SUNNY     76  68  76 NE6       30.05R
EVERGREEN      SUNNY     75  67  76 CALM      30.07R
$$

ALZ049-050-065>069-211500-
SOUTHEAST ALABAMA

CITY           SKY/WX    TMP DP  RH WIND       PRES   REMARKS
DOTHAN         SUNNY     76  67  73 CALM      30.10R
OZARK          SUNNY     74  65  74 VRB2      30.06R
TROY           SUNNY     74  67  78 CALM      30.08R
EUFAULA        FAIR      77  68  73 CALM      30.06S
$$



USA.gov is the U.S. government's official web portal to all federal, state and local government web resources and services.